Location: Mexico
(19.4000°N, 99.1500°W)
Time: 22:01:24
(UTC-06:00)

ISS - Pass Details

Date: 23 March 2018
Orbit: 402 x 408 km, 51.6° (Epoch: 19 July)

Event Time Altitude Azimuth Distance (km) Brightness Sun altitude
Rises 19:28:39 0° 234° (SW) 2,329 0.9 -10.3°
Reaches altitude 10° 19:30:51 10° 244° (WSW) 1,472 0.0 -10.8°
Maximum altitude 19:33:53 33° 311° (NW) 708 -2.0 -11.5°
Drops below altitude 10° 19:36:56 10° 18° (NNE) 1,481 -1.1 -12.2°
Enters shadow 19:39:26 -1° 29° (NNE) 2,457 -0.1 -12.8°
